Block Island, RI

7:19 AM EDT on April 20, 2018 (GMT -0400)
Block Island State

Weather History for KBID - January, 2014

Change the Weather History Date:

Tuesday, January 28, 2014

  Actual Average Record
Temperature  
Mean Temperature 19 °F -  
Max Temperature 23 °F 37 °F 54 °F (1974)
Min Temperature 15 °F 26 °F 6 °F (2003)
Degree Days  
Heating Degree Days 46    
Moisture  
Dew Point -4 °F    
Average Humidity 37    
Maximum Humidity 49    
Minimum Humidity 30    
Precipitation  
Precipitation 0.00 in - - ()
Sea Level Pressure  
Sea Level Pressure 30.22 in    
Wind  
Wind Speed 10 mph (NW)    
Max Wind Speed 16 mph    
Max Gust Speed 24 mph    
Visibility 10 miles    
Events      
Averages and records for this station are not official NWS values.
T = Trace of Precipitation, MM = Missing Value Source: NWS Daily Summary

Daily Weather History Graph

Daily Weather History Graph

Search for Another Location

Airport or City:

Astronomy

Jan. 28, 2014 Rise Set
Actual Time 7:01 AM EST 4:58 PM EST
Civil Twilight 6:31 AM EST 5:27 PM EST
Nautical Twilight 5:58 AM EST 6:00 PM EST
Astronomical Twilight 5:25 AM EST 6:33 PM EST
Moon 4:40 AM EST (1/28) 2:44 PM EST (1/28)
Length of Visible Light 10h 55m
Length of Day
9h 57m
Waning Crescent, 7% of the Moon is Illuminated
Jan 28
Waning Crescent
Jan 30
New
Feb 6
First Quarter
Feb 14
Full
Feb 22
Last Quarter

Hourly Weather History & Observations

Time (EST) Temp. Windchill Dew Point Humidity Pressure Visibility Wind Dir Wind Speed Gust Speed Precip Events Conditions
12:15 AM 23.0 °F 11.1 °F -2.2 °F 33% 30.00 in 10.0 mi NW 12.7 mph 21.9 mph N/A   Overcast
12:35 AM 23.0 °F 11.1 °F -4.0 °F 31% 30.01 in 10.0 mi NW 12.7 mph 24.2 mph N/A   Overcast
12:55 AM 21.2 °F 7.3 °F -4.0 °F 33% 30.02 in 10.0 mi NW 16.1 mph 23.0 mph N/A   Scattered Clouds
1:15 AM 21.2 °F 8.9 °F -5.8 °F 30% 30.02 in 10.0 mi NW 12.7 mph 21.9 mph N/A   Scattered Clouds
1:35 AM 21.2 °F 8.9 °F -4.0 °F 33% 30.04 in 10.0 mi NW 12.7 mph 18.4 mph N/A   Mostly Cloudy
1:55 AM 21.2 °F 10.9 °F -2.2 °F 36% 30.05 in 10.0 mi NW 9.2 mph 18.4 mph N/A   Overcast
2:15 AM 21.2 °F 8.9 °F -2.2 °F 36% 30.06 in 10.0 mi NNW 12.7 mph 19.6 mph N/A   Mostly Cloudy
2:35 AM 21.2 °F 8.3 °F -2.2 °F 36% 30.07 in 10.0 mi NW 13.8 mph 23.0 mph N/A   Partly Cloudy
2:55 AM 19.4 °F 8.6 °F -2.2 °F 39% 30.07 in 10.0 mi NW 9.2 mph - N/A   Clear
3:15 AM 19.4 °F 8.6 °F -2.2 °F 39% 30.07 in 10.0 mi NW 9.2 mph 16.1 mph N/A   Clear
3:35 AM 19.4 °F 7.9 °F -2.2 °F 39% 30.09 in 10.0 mi NW 10.4 mph 20.7 mph N/A   Clear
3:55 AM 19.4 °F 8.6 °F -2.2 °F 39% 30.10 in 10.0 mi NNW 9.2 mph 19.6 mph N/A   Clear
4:15 AM 19.4 °F 7.2 °F -2.2 °F 39% 30.11 in 10.0 mi NNW 11.5 mph 21.9 mph N/A   Clear
4:35 AM 19.4 °F 7.9 °F -2.2 °F 39% 30.13 in 10.0 mi NNW 10.4 mph 21.9 mph N/A   Clear
4:55 AM 17.6 °F 5.0 °F -2.2 °F 42% 30.14 in 10.0 mi NNW 11.5 mph 19.6 mph N/A   Clear
5:15 AM 17.6 °F 4.3 °F -2.2 °F 42% 30.16 in 10.0 mi NW 12.7 mph 21.9 mph N/A   Clear
5:35 AM 17.6 °F 4.3 °F -4.0 °F 38% 30.17 in 10.0 mi NNW 12.7 mph 21.9 mph N/A   Clear
5:55 AM 17.6 °F 3.2 °F -5.8 °F 35% 30.18 in 10.0 mi NNW 15.0 mph 23.0 mph N/A   Clear
6:15 AM 15.8 °F 3.4 °F -7.6 °F 35% 30.19 in 10.0 mi NNW 10.4 mph 17.3 mph N/A   Clear
6:35 AM 15.8 °F 3.4 °F -5.8 °F 38% 30.20 in 10.0 mi NNW 10.4 mph 19.6 mph N/A   Clear
6:55 AM 15.8 °F 0.9 °F -7.6 °F 35% 30.22 in 10.0 mi NNW 15.0 mph 21.9 mph N/A   Clear
7:15 AM 15.8 °F 4.2 °F -7.6 °F 35% 30.23 in 10.0 mi NW 9.2 mph 16.1 mph N/A   Clear
7:35 AM 15.8 °F 2.7 °F -7.6 °F 35% 30.24 in 10.0 mi WNW 11.5 mph 19.6 mph N/A   Clear
7:55 AM 15.8 °F 2.7 °F -7.6 °F 35% 30.25 in 10.0 mi NNW 11.5 mph 16.1 mph N/A   Clear
8:15 AM 17.6 °F 6.4 °F -7.6 °F 32% 30.26 in 10.0 mi NW 9.2 mph 20.7 mph N/A   Clear
8:35 AM 17.6 °F 3.7 °F -7.6 °F 32% 30.27 in 10.0 mi NW 13.8 mph 23.0 mph N/A   Clear
8:55 AM 17.6 °F 3.7 °F -7.6 °F 32% 30.28 in 10.0 mi NNW 13.8 mph 20.7 mph N/A   Clear
9:15 AM 17.6 °F 7.3 °F -7.6 °F 32% 30.28 in 10.0 mi NW 8.1 mph 21.9 mph N/A   Clear
9:35 AM 17.6 °F 5.0 °F -5.8 °F 35% 30.29 in 10.0 mi NNW 11.5 mph 17.3 mph N/A   Clear
9:55 AM 17.6 °F 6.4 °F -7.6 °F 32% 30.29 in 10.0 mi NNW 9.2 mph 20.7 mph N/A   Clear
10:15 AM 17.6 °F 6.4 °F -5.8 °F 35% 30.31 in 10.0 mi NNW 9.2 mph - N/A   Clear
10:35 AM 17.6 °F 7.3 °F -5.8 °F 35% 30.32 in 10.0 mi NW 8.1 mph 16.1 mph N/A   Clear
10:55 AM 17.6 °F 6.4 °F -7.6 °F 32% 30.31 in 10.0 mi NW 9.2 mph - N/A   Clear
11:15 AM 17.6 °F 6.4 °F -7.6 °F 32% 30.31 in 10.0 mi North 9.2 mph 17.3 mph N/A   Clear
11:35 AM 17.6 °F 6.4 °F -5.8 °F 35% 30.30 in 10.0 mi NNW 9.2 mph 16.1 mph N/A   Clear
11:55 AM 19.4 °F 8.6 °F -7.6 °F 30% 30.29 in 10.0 mi NW 9.2 mph - N/A   Clear
12:15 PM 19.4 °F 7.2 °F -5.8 °F 33% 30.28 in 10.0 mi NNW 11.5 mph - N/A   Clear
12:35 PM 17.6 °F 8.2 °F -5.8 °F 35% 30.26 in 10.0 mi NNW 6.9 mph 16.1 mph N/A   Clear
12:55 PM 19.4 °F 11.5 °F -7.6 °F 30% 30.26 in 10.0 mi North 5.8 mph - N/A   Clear
1:15 PM 19.4 °F 12.8 °F -7.6 °F 30% 30.26 in 10.0 mi West 4.6 mph - N/A   Clear
1:35 PM 19.4 °F 11.5 °F -7.6 °F 30% 30.27 in 10.0 mi NW 5.8 mph - N/A   Clear
1:55 PM 19.4 °F 9.5 °F -5.8 °F 33% 30.26 in 10.0 mi NW 8.1 mph - N/A   Clear
2:15 PM 19.4 °F 9.5 °F -7.6 °F 30% 30.26 in 10.0 mi NW 8.1 mph - N/A   Clear
2:35 PM 19.4 °F 11.5 °F -7.6 °F 30% 30.25 in 10.0 mi West 5.8 mph - N/A   Clear
2:55 PM 19.4 °F 11.5 °F -5.8 °F 33% 30.27 in 10.0 mi NNW 5.8 mph - N/A   Clear
3:15 PM 19.4 °F 11.5 °F -5.8 °F 33% 30.27 in 10.0 mi NW 5.8 mph - N/A   Clear
3:35 PM 19.4 °F 10.4 °F -5.8 °F 33% 30.28 in 10.0 mi West 6.9 mph - N/A   Clear
3:55 PM 19.4 °F 12.8 °F -5.8 °F 33% 30.29 in 10.0 mi NW 4.6 mph - N/A   Clear
4:15 PM 19.4 °F 12.8 °F -5.8 °F 33% 30.29 in 10.0 mi WNW 4.6 mph - N/A   Clear
4:35 PM 19.4 °F 12.8 °F -4.0 °F 36% 30.29 in 10.0 mi West 4.6 mph - N/A   Partly Cloudy
4:55 PM 19.4 °F 12.8 °F -4.0 °F 36% 30.29 in 10.0 mi NNW 4.6 mph - N/A   Mostly Cloudy
5:15 PM 19.4 °F 10.4 °F -4.0 °F 36% 30.30 in 10.0 mi West 6.9 mph - N/A   Mostly Cloudy
5:35 PM 19.4 °F 12.8 °F -2.2 °F 39% 30.29 in 10.0 mi West 4.6 mph - N/A   Overcast
5:55 PM 19.4 °F 12.8 °F -0.4 °F 42% 30.29 in 10.0 mi WSW 4.6 mph - N/A   Overcast
6:15 PM 19.4 °F 14.3 °F -0.4 °F 42% 30.28 in 10.0 mi West 3.5 mph - N/A   Overcast
6:35 PM 19.4 °F - -0.4 °F 42% 30.29 in 10.0 mi Calm Calm - N/A   Overcast
6:55 PM 19.4 °F - -0.4 °F 42% 30.29 in 10.0 mi Calm Calm - N/A   Mostly Cloudy
7:15 PM 19.4 °F - -0.4 °F 42% 30.28 in 10.0 mi Calm Calm - N/A   Overcast
7:35 PM 19.4 °F 14.3 °F -0.4 °F 42% 30.28 in 10.0 mi West 3.5 mph - N/A   Scattered Clouds
7:55 PM 21.2 °F - 1.4 °F 42% 30.27 in 10.0 mi Calm Calm - N/A   Mostly Cloudy
8:15 PM 19.4 °F 14.3 °F 1.4 °F 46% 30.26 in 10.0 mi NNE 3.5 mph - N/A   Overcast
8:35 PM 21.2 °F 16.4 °F 1.4 °F 42% 30.27 in 10.0 mi NNW 3.5 mph - N/A   Overcast
8:55 PM 19.4 °F 14.3 °F 1.4 °F 46% 30.27 in 10.0 mi NNW 3.5 mph - N/A   Overcast
9:15 PM 19.4 °F - -0.4 °F 42% 30.26 in 10.0 mi Calm Calm - N/A   Overcast
9:35 PM 19.4 °F - 1.4 °F 46% 30.25 in 10.0 mi Calm Calm - N/A   Overcast
9:55 PM 19.4 °F - 1.4 °F 46% 30.24 in 10.0 mi Calm Calm - N/A   Overcast
10:15 PM 19.4 °F 14.3 °F 1.4 °F 46% 30.23 in 10.0 mi NNE 3.5 mph - N/A   Overcast
10:35 PM 19.4 °F - 1.4 °F 46% 30.22 in 10.0 mi Calm Calm - N/A   Overcast
10:55 PM 19.4 °F 12.8 °F 3.2 °F 49% 30.20 in 10.0 mi NNE 4.6 mph - N/A   Mostly Cloudy
11:15 PM 19.4 °F 11.5 °F 3.2 °F 49% 30.20 in 10.0 mi North 5.8 mph - N/A   Overcast
11:35 PM 19.4 °F 14.3 °F 1.4 °F 46% 30.20 in 10.0 mi NNE 3.5 mph - N/A   Overcast
11:55 PM 19.4 °F 14.3 °F 3.2 °F 49% 30.20 in 10.0 mi North 3.5 mph - N/A   Overcast